[Iaude] MPEC P69: 2024 PY [a=1.54,e=0.38,i=1.2,H=29.4]
    mpec at cfa.harvard.edu 
    mpec at cfa.harvard.edu
       
    Mon Aug  5 22:22:31 EDT 2024
    
    
  
M.P.E.C. 2024-P69                                Issued 2024 August 6, 02:21 UT
     The Minor Planet Electronic Circulars contain information on unusual
         minor planets, routine data on comets and natural satellites,
         and occasional editorial announcements.  They are published
    on behalf of Division F of the International Astronomical Union by the
          Minor Planet Center, Smithsonian Astrophysical Observatory,
                          Cambridge, MA 02138, U.S.A.
			  
             Prepared using the Tamkin Foundation Computer Network
                              MPC at CFA.HARVARD.EDU
            URL https://www.minorplanetcenter.net/    ISSN 1523-6714
                                    2024 PY                                     
Observations:
     K24P00Y* C2024 08 05.31031522 04 52.744+12 08 20.80         17.59gUEP069I41
     K24P00Y  C2024 08 05.31066222 04 55.049+12 07 45.72         17.59gUEP069I41
     K24P00Y  C2024 08 05.37398822 10 42.101+10 33 45.58         17.26RUEP069I41
     K24P00Y  C2024 08 05.37433622 10 43.827+10 33 17.33         17.26RUEP069I41
     K24P00Y  C2024 08 05.38029222 11 11.687+10 25 32.48         17.21RUEP069I41
     K24P00Y  C2024 08 05.38064022 11 13.273+10 25 05.23         17.21RUEP069I41
     K24P00Y  C2024 08 05.54857522 22 39.467+07 51 19.34         17.97GVEP069F51
     K24P00Y  C2024 08 05.56185222 23 10.404+07 41 21.95               VEP069F51
     K24P00Y  C2024 08 05.57566722 23 41.858+07 31 22.47         17.77GVEP069F51
     K24P00Y  C2024 08 05.58925522 24 12.150+07 21 54.01         17.97GVEP069F51
     K24P00Y KC2024 08 05.62681922 27 03.559+07 42 26.50         18.3 GVEP069474
     K24P00Y KC2024 08 05.62789422 27 05.614+07 41 44.12         18.4 GVEP069474
     K24P00Y KC2024 08 05.62896922 27 07.716+07 41 01.03         18.6 GVEP069474
     K24P00Y KC2024 08 05.63004422 27 09.816+07 40 18.30         18.0 GVEP069474
     K24P00Y KC2024 08 05.63111822 27 11.849+07 39 36.04         18.1 GVEP069474
     K24P00Y KC2024 08 05.89751322 37 19.78 +04 43 39.1          19.2 GVEP069G34
     K24P00Y KC2024 08 05.90289622 37 25.25 +04 42 03.0          19.2 GVEP069G34
     K24P00Y KB2024 08 05.91361 22 37 41.99 +04 38 55.3          18.4 GXEP069K35
     K24P00Y KB2024 08 05.92089 22 37 49.09 +04 36 46.4          18.6 GXEP069K35
     K24P00Y KC2024 08 05.92256622 37 49.99 +04 38 21.1          19.1 GXEP069L01
     K24P00Y KB2024 08 05.92330 22 37 51.45 +04 36 04.8          18.3 GXEP069K35
     K24P00Y KC2024 08 05.92357822 37 50.87 +04 38 03.4          18.8 GXEP069L01
     K24P00Y KC2024 08 05.92459022 37 51.78 +04 37 45.5          18.9 GXEP069L01
     K24P00Y KC2024 08 05.92495122 37 57.34 +04 37 27.6          18.8 GVEP069203
     K24P00Y KC2024 08 05.92560122 37 52.66 +04 37 28.2          18.9 GXEP069L01
     K24P00Y KC2024 08 05.92660322 37 53.52 +04 37 10.7          18.9 GXEP069L01
     K24P00Y KC2024 08 05.93314 22 38 03.86 +04 35 43.6          18.9 GVEP069104
     K24P00Y KB2024 08 05.93823422 38 20.20 +04 33 50.6          19.2 GXEP069I93
     K24P00Y KC2024 08 05.93894 22 38 08.69 +04 34 03.9          18.8 GVEP069104
     K24P00Y KC2024 08 05.93945822 38 10.00 +04 33 17.8          18.8 GVEP069203
     K24P00Y KB2024 08 05.94174822 38 23.32 +04 32 51.0          19.2 GXEP069I93
     K24P00Y KB2024 08 05.94525122 38 26.35 +04 31 52.0          19.1 GXEP069I93
     K24P00Y KC2024 08 05.94958 22 38 17.31 +04 31 03.9          18.7 GVEP069104
     K24P00Y KC2024 08 05.95435322 38 22.19 +04 29 08.2          18.5 GVEP069203
     K24P00Y KC2024 08 05.98338 22 38 44.01 +04 19 50.5          19.2 GVEP069D48
     K24P00Y KC2024 08 05.99235 22 38 50.57 +04 17 30.3          19.0 GVEP069D48
     K24P00Y KC2024 08 06.00119 22 38 56.94 +04 15 13.7          19.0 GVEP069D48
Observer details:
104 San Marcello Pistoiese.  Observers P. Bacci, M. Maestripieri, T.
    Giovannetti.  Measurers P. Bacci, L. Tesi, G. Fagioli.  0.60-m F4
    Reflector + CCD.
203 GiaGa Observatory.  Observer G. Galli.  0.36-m f/5.76 Schmidt-Cassegrain +
    CCD.
474 Mount John Observatory, Lake Tekapo.  Observers A. C. Gilmore, P. M.
    Kilmartin.  Measurer P. M. Kilmartin.  0.6-m f/6.3 Reflector + CCD.
D48 Niederbexbach Observatory.  Observer W. Wiedemann.  0.28-m f/4.3 Schmidt-
    Cassegrain + CCD.
F51 Pan-STARRS 1, Haleakala.  Observers J. Herman, T. Lowe, P. Minguez, A.
    Schultz, I. Smith.  Measurers K. Chambers, T. de Boer, J. Fairlamb, H.
    Gao, M. Huber, C.-C. Lin, E. Magnier, Y. Ramanjooloo, R. Wainscoat, R.
    Weryk.  1.8-m Ritchey-Chretien + CCD.
G34 Oberfrauendorf.  Observer T. Felber.  0.35-m f/6.3 Schmidt-Cassegrain+CMO.
I41 Palomar Mountain--ZTF.  Observers G. Helou, T. A. Prince, K.
    Venkataramani, Y. Wagh, D. Kulkarni, Q.-Z. Ye, Z. T. F. Collaboration.
    Measurers D. A. Duev, H.-W. Lin, A. A. Mahabal, F. J. Masci, Q.-Z. Ye.
    1.2-m f/2.4 Schmidt + ZTF Camera.
I93 St Pardon de Conques.  Observer F. Losse.  0.40-m f/3.7 reflector + CMO.
K35 Huenfelden.  Observer P. Remmel.  0.36-m f/1.9 reflector + CMO.
L01 Visnjan Observatory, Tican.  Observers K. Korlevic, I. Forkapa, L.
    Ivanovic, E. Matika, I. Novotny, I. Paleka, E. Pettarin, M. Spoler.
    Measurer I. Paleka.  1.0-m f/2.9 reflector + CCD.
Orbital elements:
2024 PY                                                  Earth MOID = 0.0005 AU
Epoch 2024 Oct. 17.0 TT = JDT 2460600.5                 Veres                   
M  54.42503              (2000.0)            P               Q                  
n   0.51463089     Peri.  322.74715     +0.06341581     +0.99785545             
a   1.5421933      Node   310.88270     -0.91039353     +0.05118559             
e   0.3825821      Incl.    1.22895     -0.40885457     +0.04079882             
P   1.92           H   29.41          G   0.15           U   6                  
Residuals in seconds of arc
240805 I41  0.5-  0.0     240805 474  0.5+  0.3-    240805 104  0.0   0.0
240805 I41  0.9+  0.2-    240805 474  0.2-  0.0     240805 I93  0.0   0.2+
240805 I41  1.4-  0.7+    240805 G34  0.5+  0.0     240805 104  0.4-  0.2-
240805 I41  0.2-  0.1-    240805 G34 (0.1-  1.5+)   240805 203  0.1-  0.1-
240805 I41  0.4-  0.5+    240805 K35  0.3+  0.2+    240805 I93  0.2+  0.0
240805 I41  0.6-  0.0     240805 K35  0.1+  0.8-    240805 I93  0.1-  0.2-
240805 F51  0.2-  0.3+    240805 L01  0.1+  0.1-    240805 104  0.1-  0.2-
240805 F51  0.2-  0.0     240805 K35  0.9+  0.4-    240805 203  0.3-  0.6+
240805 F51  0.1+  0.2-    240805 L01  0.0   0.1-    240805 D48  0.4+  0.4-
240805 F51  0.0   0.0     240805 L01  0.3+  0.2-    240805 D48  0.5-  0.1-
240805 474  0.5+  0.3-    240805 203  0.0   0.1+    240806 D48  0.0   0.1-
240805 474  0.0   0.1+    240805 L01  0.2+  0.1+
240805 474  0.2+  0.2-    240805 L01  0.0   0.1+
Ephemeris:
2024 PY                  a,e,i = 1.54, 0.38, 1                   q = 0.9522
Date    TT    R. A. (2000) Decl.     Delta      r    Elong.  Phase     V
2024 07 07    10 28 28.7 -02 20 30   0.1335  0.9473    55.4   117.9    29.6
...
2024 07 22    10 38 35.0 -03 38 50   0.06351 0.9716    44.4   133.0    29.4
...
2024 07 30    10 42 52.8 -03 27 01   0.02686 0.9942    37.9   141.2    28.6
...
2024 08 05    19 52 52.7 +34 15 18   0.0007841.0149   126.3    53.7    15.9
2024 08 06    22 38 32.2 +04 36 02   0.0050931.0187   148.5    31.4    19.3
2024 08 07    22 48 53.8 +02 09 23   0.0096251.0224   149.0    30.7    20.7
...
2024 08 13    22 56 52.4 +00 00 47   0.03697 1.0466   154.2    24.9    23.5
...
2024 08 21    22 56 48.0 -00 38 19   0.07434 1.0826   162.0    16.8    24.8
...
2024 09 05    22 53 48.5 -01 38 42   0.1510  1.1588   174.8     4.5    26.0
M. P. C. Staff               (C) Copyright 2024 MPC           M.P.E.C. 2024-P69
    
    
More information about the Iaude
mailing list